Tracking 19817 objects as of 19-Aug-2019
HD Live streaming from Space Station
objects crossing your sky now

FENGYUN 1C DEB

Track FENGYUN 1C DEB now!
10-day predictions


NORAD ID: 31345
Int'l Code: 1999-025BQZ
Perigee: 837.6 km
Apogee: 965.5 km
Inclination: 98.1 °
Period: 102.9 minutes
Semi major axis: 7272 km
RCS: 0.0093 m2 (small)
Launch date: May 10, 1999
Source: People's Republic of China (PRC)
Launch site: Taiyaun Space Center, China (TSC)

Note: This is SATELLITE DEBRIS
aabbcc
Your satellite tracking list
Your tracking list is empty




NASA's NSSDC Master Catalog

Two Line Element Set (TLE):
1 31345U 99025BQZ 19228.40883288  .00000745  00000-0  51541-3 0  9999
2 31345  98.1207  95.5518 0087926 185.4144 174.6081 13.99817225630909
Source of the keplerian elements: AFSPC